• In Lithuania
  • List of Countries
  • For 7 days
  • Water Temperature
  • Satellite Maps
  • Weather Map
  • Weather Widgets
  • user-avatar
    Login

    Hourly Weather Klyuchevskoe

    Today, 19 August, Sunday

    Time Temperature Precipitation Wind Pressure Humidity
    00:00 +24°C° 0 mm 6 mps 741 mmHg 43%
    01:00 +23°C° 0 mm 6 mps 741 mmHg 43%
    02:00 +22°C° 0 mm 5 mps 741 mmHg 43%
    03:00 +21°C° 0 mm 4 mps 741 mmHg 46%
    04:00 +21°C° 0 mm 5 mps 742 mmHg 45%
    05:00 +20°C° 0 mm 5 mps 742 mmHg 44%
    06:00 +20°C° 0 mm 5 mps 742 mmHg 43%
    07:00 +21°C° 0 mm 5 mps 743 mmHg 40%
    08:00 +23°C° 0 mm 6 mps 743 mmHg 38%
    09:00 +24°C° 0 mm 6 mps 743 mmHg 35%
    10:00 +24°C° 0 mm 6 mps 743 mmHg 33%
    11:00 +26°C° 0 mm 6 mps 743 mmHg 31%
    12:00 +27°C° 0 mm 6 mps 743 mmHg 29%
    13:00 +28°C° 0 mm 6 mps 743 mmHg 28%
    14:00 +28°C° 0 mm 6 mps 743 mmHg 26%
    15:00 +29°C° 0 mm 6 mps 743 mmHg 25%
    16:00 +28°C° 0 mm 6 mps 743 mmHg 26%
    17:00 +27°C° 0 mm 5 mps 743 mmHg 26%
    18:00 +26°C° 0 mm 5 mps 743 mmHg 27%
    19:00 +25°C° 0 mm 5 mps 743 mmHg 29%
    20:00 +22°C° 0 mm 4 mps 743 mmHg 30%
    21:00 +20°C° 0 mm 4 mps 744 mmHg 31%
    22:00 +20°C° 0 mm 4 mps 744 mmHg 32%
    23:00 +19°C° 0 mm 4 mps 744 mmHg 32%

    Tomorrow, 20 August, Monday

    Time Temperature Precipitation Wind Pressure Humidity
    00:00 +19°C° 0 mm 4 mps 744 mmHg 33%
    01:00 +18°C° 0 mm 4 mps 744 mmHg 34%
    02:00 +18°C° 0 mm 4 mps 744 mmHg 36%
    03:00 +17°C° 0 mm 4 mps 744 mmHg 37%
    04:00 +17°C° 0 mm 4 mps 744 mmHg 39%
    05:00 +17°C° 0 mm 4 mps 744 mmHg 40%
    06:00 +15°C° 0 mm 4 mps 744 mmHg 42%
    07:00 +19°C° 0 mm 5 mps 744 mmHg 39%
    08:00 +21°C° 0 mm 6 mps 744 mmHg 35%
    09:00 +23°C° 0 mm 7 mps 744 mmHg 32%
    10:00 +24°C° 0 mm 7 mps 744 mmHg 30%
    11:00 +26°C° 0 mm 7 mps 744 mmHg 28%
    12:00 +27°C° 0 mm 7 mps 743 mmHg 27%
    13:00 +28°C° 0 mm 7 mps 743 mmHg 26%
    14:00 +28°C° 0 mm 7 mps 743 mmHg 25%
    15:00 +29°C° 0 mm 7 mps 742 mmHg 24%
    16:00 +28°C° 0 mm 6 mps 742 mmHg 25%
    17:00 +28°C° 0 mm 5 mps 742 mmHg 27%
    18:00 +27°C° 0 mm 5 mps 742 mmHg 28%
    19:00 +25°C° 0 mm 4 mps 742 mmHg 31%
    20:00 +22°C° 0 mm 4 mps 742 mmHg 33%
    21:00 +21°C° 0 mm 4 mps 742 mmHg 35%
    22:00 +20°C° 0 mm 4 mps 742 mmHg 39%
    23:00 +20°C° 0 mm 4 mps 742 mmHg 43%

    Day after tomorrow, 21 August, Tuesday

    Time Temperature Precipitation Wind Pressure Humidity
    00:00 +19°C° 0 mm 5 mps 742 mmHg 46%
    01:00 +19°C° 0 mm 4 mps 742 mmHg 53%
    02:00 +18°C° 0 mm 4 mps 742 mmHg 60%
    03:00 +17°C° 0 mm 4 mps 742 mmHg 68%
    04:00 +17°C° 0 mm 4 mps 742 mmHg 71%
    05:00 +17°C° 0 mm 4 mps 742 mmHg 75%
    06:00 +17°C° 0 mm 4 mps 742 mmHg 79%
    07:00 +19°C° 0 mm 5 mps 742 mmHg 70%
    08:00 +21°C° 0 mm 5 mps 742 mmHg 62%
    09:00 +23°C° 0 mm 6 mps 742 mmHg 53%
    10:00 +24°C° 0 mm 6 mps 742 mmHg 49%
    11:00 +27°C° 0 mm 6 mps 742 mmHg 44%
    12:00 +28°C° 0 mm 6 mps 742 mmHg 39%
    13:00 +29°C° 0 mm 6 mps 741 mmHg 38%
    14:00 +30°C° 0 mm 5 mps 741 mmHg 37%
    15:00 +30°C° 0 mm 5 mps 741 mmHg 35%
    16:00 +30°C° 0 mm 5 mps 741 mmHg 37%
    17:00 +30°C° 0 mm 4 mps 740 mmHg 38%
    18:00 +29°C° 0 mm 3 mps 740 mmHg 40%
    19:00 +27°C° 0 mm 3 mps 740 mmHg 43%
    20:00 +26°C° 0 mm 3 mps 741 mmHg 46%
    21:00 +24°C° 0 mm 2 mps 741 mmHg 50%
    22:00 +23°C° 0 mm 2 mps 741 mmHg 51%
    23:00 +23°C° 0 mm 2 mps 741 mmHg 53%

    22 August, Wednesday

    Time Temperature Precipitation Wind Pressure Humidity
    00:00 +21°C° 0 mm 2 mps 741 mmHg 54%
    01:00 +21°C° 0 mm 2 mps 741 mmHg 57%
    02:00 +20°C° 0 mm 2 mps 741 mmHg 60%
    03:00 +20°C° 0 mm 2 mps 741 mmHg 63%
    04:00 +20°C° 0 mm 2 mps 741 mmHg 65%
    05:00 +19°C° 0 mm 2 mps 741 mmHg 68%
    06:00 +19°C° 0 mm 2 mps 741 mmHg 70%
    07:00 +23°C° 0 mm 2 mps 742 mmHg 63%
    08:00 +25°C° 0 mm 2 mps 742 mmHg 55%
    09:00 +27°C° 0 mm 2 mps 742 mmHg 48%
    10:00 +29°C° 0 mm 2 mps 742 mmHg 43%
    11:00 +30°C° 0 mm 2 mps 741 mmHg 39%
    12:00 +32°C° 0 mm 2 mps 741 mmHg 34%
    13:00 +32°C° 0 mm 2 mps 741 mmHg 32%
    14:00 +34°C° 0 mm 2 mps 741 mmHg 30%
    15:00 +34°C° 0 mm 2 mps 741 mmHg 28%
    16:00 +34°C° 0 mm 2 mps 741 mmHg 29%
    17:00 +32°C° 0 mm 2 mps 741 mmHg 30%
    18:00 +32°C° 0 mm 2 mps 741 mmHg 32%
    19:00 +30°C° 0 mm 2 mps 741 mmHg 34%
    20:00 +28°C° 0 mm 2 mps 742 mmHg 37%
    21:00 +26°C° 0 mm 2 mps 742 mmHg 39%
    22:00 +26°C° 0 mm 2 mps 742 mmHg 40%
    23:00 +25°C° 0 mm 2 mps 742 mmHg 41%

    23 August, Thursday

    Time Temperature Precipitation Wind Pressure Humidity
    00:00 +25°C° 0 mm 2 mps 742 mmHg 42%
    01:00 +24°C° 0 mm 2 mps 742 mmHg 44%
    02:00 +23°C° 0 mm 2 mps 742 mmHg 47%
    03:00 +23°C° 0 mm 2 mps 743 mmHg 50%
    04:00 +21°C° 0 mm 2 mps 743 mmHg 53%
    05:00 +21°C° 0 mm 2 mps 743 mmHg 55%
    06:00 +20°C° 0 mm 3 mps 744 mmHg 58%
    07:00 +22°C° 0 mm 3 mps 744 mmHg 53%
    08:00 +25°C° 0 mm 4 mps 744 mmHg 47%
    09:00 +27°C° 0 mm 4 mps 744 mmHg 42%
    10:00 +28°C° 0 mm 5 mps 744 mmHg 38%
    11:00 +30°C° 0 mm 5 mps 744 mmHg 35%
    12:00 +33°C° 0 mm 5 mps 743 mmHg 31%
    13:00 +33°C° 0 mm 5 mps 743 mmHg 30%
    14:00 +33°C° 0 mm 6 mps 743 mmHg 29%
    15:00 +34°C° 0 mm 6 mps 743 mmHg 27%
    16:00 +33°C° 0 mm 6 mps 743 mmHg 29%
    17:00 +32°C° 0 mm 6 mps 743 mmHg 31%
    18:00 +30°C° 0 mm 6 mps 743 mmHg 32%
    19:00 +29°C° 0 mm 6 mps 743 mmHg 33%
    20:00 +27°C° 0 mm 6 mps 743 mmHg 34%
    21:00 +26°C° 0 mm 6 mps 744 mmHg 35%
    22:00 +24°C° 0 mm 6 mps 744 mmHg 33%
    23:00 +24°C° 0 mm 6 mps 744 mmHg 31%

    24 August, Friday

    Time Temperature Precipitation Wind Pressure Humidity
    00:00 +23°C° 0 mm 6 mps 744 mmHg 29%
    01:00 +23°C° 0 mm 6 mps 744 mmHg 29%
    02:00 +22°C° 0 mm 6 mps 744 mmHg 29%
    03:00 +22°C° 0 mm 6 mps 743 mmHg 30%
    04:00 +21°C° 0 mm 6 mps 744 mmHg 31%
    05:00 +21°C° 0 mm 6 mps 744 mmHg 33%
    06:00 +21°C° 0 mm 6 mps 744 mmHg 34%
    07:00 +22°C° 0 mm 7 mps 744 mmHg 35%
    08:00 +24°C° 0 mm 7 mps 744 mmHg 36%
    09:00 +26°C° 0 mm 8 mps 744 mmHg 37%
    10:00 +28°C° 0 mm 8 mps 743 mmHg 35%
    11:00 +29°C° 0 mm 8 mps 743 mmHg 32%
    12:00 +32°C° 0 mm 8 mps 743 mmHg 30%
    13:00 +32°C° 0 mm 9 mps 742 mmHg 29%
    14:00 +33°C° 0 mm 9 mps 742 mmHg 28%
    15:00 +33°C° 0 mm 9 mps 742 mmHg 27%
    16:00 +32°C° 0 mm 8 mps 742 mmHg 29%
    17:00 +31°C° 0 mm 8 mps 742 mmHg 30%
    18:00 +30°C° 0 mm 7 mps 741 mmHg 32%
    19:00 +28°C° 0 mm 7 mps 742 mmHg 34%
    20:00 +27°C° 0 mm 7 mps 742 mmHg 35%
    21:00 +26°C° 0 mm 8 mps 742 mmHg 37%
    22:00 +24°C° 0 mm 8 mps 742 mmHg 39%
    23:00 +23°C° 0 mm 8 mps 742 mmHg 41%
    Show more